Date String (YYYY-MM-DD hh:mm:ss) UTC,Instrument flags,Ambient pressure (hPa),Sample flow (lpm),Bypass flow (lpm),Sample temperature (°C),Ambient temperature (°C),ASC tube jacket temperature (°C),LED temperature (°C),Box temperature (°C),Sample RH (%),Span deviation,Mass concentration (μg/m³),Mass concentration (μg/m³),Mass concentration (μg/m³)
DateTimeUTC,F1_M11,P_M11,Q1_M11,Q2_M11,T1_M11,T2_M11,T3_M11,T4_M11,T5_M11,U1_M11,ZSPAN_M11,X0_M11,X2_M11,X1_M11
2023-05-08 21:00:00,,0828.6,5.01,0.00,29.7,26.0,00.0,38.0,31.1,11.8,-001.2,0012.62,0004.41,0003.54
2023-05-08 21:01:00,,0828.5,5.01,0.00,29.7,26.0,00.0,37.9,31.0,11.9,-000.8,0012.21,0004.29,0003.44
2023-05-08 21:02:00,,0828.5,4.99,0.00,29.6,26.2,00.0,37.9,31.0,11.9,-000.1,0011.52,0004.17,0003.32
2023-05-08 21:03:00,,0828.6,4.99,0.00,29.5,26.6,00.0,37.9,31.1,11.9,0000.0,0010.93,0004.04,0003.21
2023-05-08 21:04:00,,0828.5,5.01,0.00,29.5,26.9,00.0,37.9,31.1,12.1,0000.0,0010.78,0003.91,0003.09
2023-05-08 21:05:00,,0828.4,5.01,0.00,29.5,27.1,00.0,37.9,31.2,12.2,0000.0,0010.92,0003.86,0002.95
2023-05-08 21:06:00,,0828.4,5.00,0.00,29.6,27.4,00.0,37.9,31.2,12.2,0000.0,0010.74,0003.87,0002.81
2023-05-08 21:07:00,,0828.4,5.00,0.00,29.6,27.6,00.0,37.9,31.3,11.9,0000.0,0010.18,0003.76,0002.66
2023-05-08 21:08:00,,0828.4,5.01,0.00,29.6,27.8,00.0,37.9,31.3,11.9,0000.0,0009.90,0003.73,0002.54
2023-05-08 21:09:00,,0828.4,5.00,0.00,29.6,27.9,00.0,38.0,31.3,12.1,0000.0,0009.21,0003.72,0002.53
2023-05-08 21:10:00,,0828.4,4.99,0.00,29.6,28.1,00.0,38.0,31.4,12.3,0000.0,0008.70,0003.75,0002.51
2023-05-08 21:11:00,,0828.4,5.00,0.00,29.7,28.2,00.0,38.0,31.4,12.2,0000.0,0008.69,0003.78,0002.49
2023-05-08 21:12:00,,0828.4,5.01,0.00,29.7,28.3,00.0,38.0,31.4,11.9,0000.0,0008.67,0003.76,0002.45
2023-05-08 21:13:00,,0828.5,5.00,0.00,29.7,28.3,00.0,38.0,31.5,11.8,0000.0,0009.24,0003.73,0002.41
2023-05-08 21:14:00,,0828.5,4.99,0.00,29.8,28.4,00.0,38.0,31.5,12.1,0000.0,0009.66,0003.70,0002.39
2023-05-08 21:15:00,,0828.5,5.00,0.00,29.8,28.0,00.0,38.0,31.5,12.1,0000.0,0010.04,0003.65,0002.36
2023-05-08 21:16:00,,0828.5,5.00,0.00,29.7,26.4,00.0,38.0,31.2,12.1,0000.0,0009.73,0003.58,0002.33
2023-05-08 21:17:00,,0828.4,5.01,0.00,29.7,25.9,00.0,37.9,31.1,12.2,0000.0,0009.46,0003.49,0002.29
2023-05-08 21:18:00,,0828.4,5.01,0.00,29.6,26.0,00.0,37.9,31.0,12.3,0000.0,0010.03,0003.49,0002.28
2023-05-08 21:19:00,,0828.4,5.00,0.00,29.6,26.3,00.0,37.9,31.0,12.3,0000.0,0009.98,0003.47,0002.28
2023-05-08 21:20:00,,0828.4,5.00,0.00,29.5,26.7,00.0,37.9,31.1,12.4,0000.0,0009.87,0003.44,0002.27
2023-05-08 21:21:00,,0828.5,5.00,0.00,29.5,27.0,00.0,37.9,31.1,12.4,0000.0,0009.69,0003.41,0002.28
2023-05-08 21:22:00,,0828.4,4.98,0.00,29.5,27.3,00.0,37.9,31.2,12.6,0000.0,0010.05,0003.42,0002.30
2023-05-08 21:23:00,,0828.4,5.00,0.00,29.6,27.5,00.0,37.9,31.2,12.7,0000.0,0010.70,0003.45,0002.33
2023-05-08 21:24:00,,0828.4,5.01,0.00,29.6,27.7,00.0,37.9,31.3,12.9,0000.0,0010.86,0003.51,0002.38
2023-05-08 21:25:00,,0828.4,5.00,0.00,29.6,27.9,00.0,37.9,31.3,12.8,0000.0,0011.41,0003.59,0002.41
2023-05-08 21:26:00,,0828.4,4.99,0.00,29.6,28.0,00.0,37.9,31.3,12.5,0000.0,0011.46,0003.64,0002.44
2023-05-08 21:27:00,,0828.4,5.00,0.00,29.6,28.1,00.0,37.9,31.4,12.5,0000.0,0011.24,0003.68,0002.45
2023-05-08 21:28:00,,0828.4,5.01,0.00,29.7,28.2,00.0,38.0,31.4,12.5,0000.0,0011.05,0003.65,0002.45
2023-05-08 21:29:00,,0828.4,5.00,0.00,29.7,28.3,00.0,38.0,31.4,12.3,0000.0,0010.52,0003.64,0002.42
2023-05-08 21:30:00,,0828.3,5.01,0.00,29.7,28.3,00.0,38.0,31.4,12.1,0000.0,0010.43,0003.63,0002.38
2023-05-08 21:31:00,,0828.3,4.98,0.00,29.7,28.4,00.0,38.0,31.5,12.1,0000.0,0010.41,0003.60,0002.35
2023-05-08 21:32:00,,0828.2,5.00,0.00,29.8,27.2,00.0,38.0,31.3,12.3,0000.0,0010.42,0003.58,0002.30
2023-05-08 21:33:00,,0828.1,5.00,0.00,29.7,26.0,00.0,37.9,31.1,12.3,0000.0,0010.03,0003.48,0002.24
2023-05-08 21:34:00,,0828.1,5.01,0.00,29.6,25.9,00.0,37.9,31.0,12.3,0000.0,0009.46,0003.43,0002.19
2023-05-08 21:35:00,,0828.2,5.00,0.00,29.5,26.1,00.0,37.9,30.9,12.2,0000.0,0009.18,0003.41,0002.18
2023-05-08 21:36:00,,0828.3,5.01,0.00,29.5,26.4,00.0,37.9,31.0,12.1,0000.0,0008.16,0003.35,0002.18
2023-05-08 21:37:00,,0828.3,4.99,0.00,29.5,26.8,00.0,37.9,31.0,12.2,0000.0,0008.28,0003.32,0002.16
2023-05-08 21:38:00,,0828.3,4.99,0.00,29.5,27.1,00.0,37.9,31.1,12.4,0000.0,0008.31,0003.33,0002.14
2023-05-08 21:39:00,,0828.3,5.00,0.00,29.5,27.3,00.0,37.9,31.1,12.3,0000.0,0008.35,0003.33,0002.12
2023-05-08 21:40:00,,0828.3,5.01,0.00,29.5,27.5,00.0,37.9,31.2,12.4,0000.0,0008.24,0003.34,0002.12
2023-05-08 21:41:00,,0828.2,5.01,0.00,29.6,27.7,00.0,37.9,31.2,12.6,0000.0,0008.27,0003.31,0002.12
2023-05-08 21:42:00,,0828.2,4.98,0.00,29.6,27.9,00.0,37.9,31.3,12.2,0000.0,0008.34,0003.27,0002.10
2023-05-08 21:43:00,,0828.2,5.00,0.00,29.6,28.0,00.0,37.9,31.3,12.2,0000.0,0008.32,0003.25,0002.08
2023-05-08 21:44:00,,0828.2,5.00,0.00,29.6,28.1,00.0,37.9,31.3,12.3,0000.0,0008.79,0003.23,0002.07
2023-05-08 21:45:00,,0828.1,5.01,0.00,29.7,28.2,00.0,37.9,31.4,12.3,0000.0,0009.16,0003.22,0002.06
2023-05-08 21:46:00,,0828.1,5.01,0.00,29.7,28.3,00.0,38.0,31.4,12.4,0000.0,0009.01,0003.18,0002.02
2023-05-08 21:47:00,,0828.1,4.99,0.00,29.7,28.4,00.0,38.0,31.4,12.8,0000.0,0008.77,0003.18,0001.96
2023-05-08 21:48:00,,0828.1,5.00,0.00,29.7,28.4,00.0,38.0,31.5,12.5,0000.0,0008.43,0003.22,0001.92
2023-05-08 21:49:00,,0828.1,5.01,0.00,29.8,28.2,00.0,38.0,31.5,12.3,0000.0,0008.26,0003.17,0001.90
2023-05-08 21:50:00,,0828.1,4.99,0.00,29.7,26.5,00.0,38.0,31.2,12.0,0000.0,0008.28,0003.18,0001.90
2023-05-08 21:51:00,,0828.1,5.00,0.00,29.7,25.9,00.0,37.9,31.1,12.1,0000.0,0008.20,0003.15,0001.90
2023-05-08 21:52:00,,0828.1,5.01,0.00,29.6,26.0,00.0,37.9,31.0,12.3,0000.0,0008.06,0003.13,0001.91
2023-05-08 21:53:00,,0828.0,5.01,0.00,29.6,26.3,00.0,37.9,31.0,12.6,0000.0,0007.86,0003.15,0001.92
2023-05-08 21:54:00,,0828.1,5.00,0.00,29.5,26.6,00.0,37.9,31.0,12.5,0000.0,0007.86,0003.20,0001.93
2023-05-08 21:55:00,,0828.1,5.00,0.00,29.5,26.9,00.0,37.9,31.1,12.4,0000.0,0007.59,0003.25,0001.95
2023-05-08 21:56:00,,0828.1,5.00,0.00,29.5,27.2,00.0,37.9,31.1,12.2,0000.0,0006.43,0003.26,0001.97
2023-05-08 21:57:00,,0828.0,4.99,0.00,29.5,27.4,00.0,37.9,31.2,12.4,0000.0,0006.56,0003.26,0001.98
2023-05-08 21:58:00,,0828.1,4.99,0.00,29.6,27.6,00.0,37.9,31.2,12.5,0000.0,0006.39,0003.22,0001.99
2023-05-08 21:59:00,,0828.0,5.00,0.00,29.6,27.8,00.0,37.9,31.3,12.4,0000.0,0007.37,0003.15,0001.97
